Location: Burgwalden
(48.2830°N, 10.7576°E)
Time: 02:19:46
(UTC+00:00)

SL-16 R/B - Pass Details

Date: 26 September 2023
Orbit: 842 x 845 km, 71.0° (Epoch: 04 December)

Event Time Altitude Azimuth Distance (km) Brightness Sun altitude
Rises 03:17:38 0° 325° (NW) 3,413 5.2 -18.9°
Reaches altitude 10° 03:20:17 10° 317° (NW) 2,474 4.4 -18.5°
Maximum altitude 03:25:18 34° 254° (WSW) 1,375 2.7 -17.7°
Drops below altitude 10° 03:30:18 10° 192° (SSW) 2,460 4.3 -16.9°
Sets 03:32:57 0° 183° (S) 3,391 5.1 -16.5°
